Regional Weather Roundup
Issued by NWS

Home | Current Version | Previous Version | Text Only | Print | Product List | Glossary Off
Versions: 1 2 3 4 5 6 7 8 9 10 11 12 13 14 15 16 17 18 19 20 21 22 23 24 25 26 27 28 29 30 31 32 33 34 35 36 37 38 39 40 41 42 43 44 45 46 47 48 49 50

000
ASUS45 KBOI 280110
RWRID

IDAHO REGIONAL WEATHER ROUNDUP
NATIONAL WEATHER SERVICE BOISE ID
700 PM MDT THU AUG 27 2015

NOTE: "FAIR" INDICATES FEW OR NO CLOUDS BELOW 12000 FEET
WITH NO SIGNIFICANT WEATHER AND/OR OBSTRUCTIONS TO VISIBILITY

IDZ012-014-280200-
SOUTHWEST IDAHO


CITY           SKY/WX    TMP DP  RH WIND       PRES   REMARKS
BOISE          SUNNY     91  36  14 N9        30.02F
CALDWELL         N/A     91  45  19 NE3       30.00F
MOUNTAIN HOME  SUNNY     93  32  11 N13       30.01S
$$

IDZ016-017-280200-
SOUTHCENTRAL IDAHO


CITY           SKY/WX    TMP DP  RH WIND       PRES   REMARKS
BURLEY         SUNNY     84  42  22 W8        30.10F
JEROME         SUNNY     82  48  30 W3        30.10F
TWIN FALLS     MOSUNNY   89  37  16 CALM      30.12F
$$

IDZ019>023-280200-
SOUTHEAST IDAHO


CITY           SKY/WX    TMP DP  RH WIND       PRES   REMARKS
IDAHO FALLS    CLOUDY    78  47  33 E10       30.13F
POCATELLO      MOSUNNY   86  37  17 SW15      30.13F
REXBURG        CLOUDY    80  36  20 CALM      30.14F
$$

IDZ006-010-011-018-031-032-280200-
CENTRAL IDAHO MOUNTAINS


CITY           SKY/WX    TMP DP  RH WIND       PRES   REMARKS
MCCALL         FAIR      78  34  20 SE10      30.16F
HAILEY         SUNNY     81  36  19 SW8       30.18S
STANLEY          N/A     78  26  14 NW9       30.26S
SALMON         MOSUNNY   82  50  32 N5        29.98S
CHALLIS        CLOUDY    80  28  15 SW8       30.10S HAZE
$$

IDZ002-004-006-007-026-280200-
NORTHERN IDAHO


CITY           SKY/WX    TMP DP  RH WIND       PRES   REMARKS
LEWISTON       MOSUNNY   91  39  16 NW8       29.94F
LOWELL           N/A     74  59  59 CALM      29.93S
COEUR D`ALENE  SUNNY     84  41  21 W10       29.97F
MULLAN PASS    SUNNY     69  36  29 VRB3      30.22S
$$


USA.gov is the U.S. government's official web portal to all federal, state and local government web resources and services.